Location: *
(53.9002°N, 27.5624°E)
Time: 11:06:09
(UTC+00:00)

Cosmos 2369 Rocket - Pass Details

Date: 12 November 2019
Orbit: 830 x 851 km, 71.0° (Epoch: 14 December)

Event Time Altitude Azimuth Distance (km) Brightness Sun altitude
Rises 15:41:37 0° 240° (WSW) 3,377 6.9 -12.5°
Reaches altitude 10° 15:44:14 10° 248° (WSW) 2,444 6.0 -12.9°
Maximum altitude 15:49:26 38° 316° (NW) 1,250 3.4 -13.6°
Drops below altitude 10° 15:54:39 10° 25° (NNE) 2,449 4.3 -14.4°
Enters shadow 15:55:37 - 28° (NNE) 2,783 4.5 -14.5°
